www.dot.state.il.us - /desenv/hwystds/rev212/Web PDFs/


[To Parent Directory]

Thursday, August 12, 2010 1:17 PM 45437952 1_Rev212_AllHighwayStandards_PDF.exe
Thursday, August 12, 2010 1:18 PM 1175040 1_Rev212_Div000_PDF.exe
Thursday, August 12, 2010 1:19 PM 557568 1_Rev212_Div200_PDF.exe
Thursday, August 12, 2010 1:20 PM 168960 1_Rev212_Div300_PDF.exe
Thursday, August 12, 2010 1:21 PM 7618048 1_Rev212_Div400_PDF.exe
Thursday, August 12, 2010 1:22 PM 8122368 1_Rev212_Div500_PDF.exe
Friday, August 13, 2010 10:51 AM 14717952 1_Rev212_Div600_PDF.exe
Thursday, August 12, 2010 1:25 PM 7066624 1_Rev212_Div700_PDF.exe
Thursday, August 12, 2010 1:26 PM 3946496 1_Rev212_Div800_PDF.exe
Thursday, August 12, 2010 1:27 PM 2375680 1_Rev212_DivBLR_PDF.exe
Wednesday, August 11, 2010 4:09 PM 875866 212-000001-06_standardsymbolsabbreviations&patterns.pdf
Monday, July 26, 2010 1:55 PM 127444 212-001001-02_areasofreinfrebars.pdf
Monday, July 26, 2010 1:57 PM 152842 212-001006_decimalofinch&foot.pdf
Monday, July 26, 2010 1:58 PM 75097 212-202001-01_earthmedditchcheck.pdf
Monday, July 26, 2010 2:05 PM 314177 212-280001-05_temperosioncntrlsystems.pdf
Monday, July 26, 2010 2:05 PM 142932 212-285001-02_fabricformedconcrevetmentmats.pdf
Monday, July 26, 2010 2:06 PM 134268 212-353001-04_pccbsecsewithhmabind&surfcses.pdf
Tuesday, July 27, 2010 10:43 AM 319393 212-406001-05_entrramptermflexpvmt.pdf
Thursday, August 12, 2010 11:59 AM 468511 212-406101-04_exitrampterminalflexiblepvmt.pdf
Monday, July 26, 2010 2:10 PM 92777 212-406201-01_mailboxturnout.pdf
Monday, July 26, 2010 2:11 PM 264791 212-420001-07_pavementjoints.pdf
Monday, July 26, 2010 2:11 PM 118269 212-420101-04_24ftjointedpccpvmt.pdf
Monday, July 26, 2010 2:12 PM 135620 212-420106-04_36ftjointedpccpvmt.pdf
Wednesday, August 11, 2010 4:09 PM 314164 212-420111-03_pccpvmtroundouts.pdf
Friday, July 30, 2010 9:05 AM 394755 212-420201-07_entrrampterm-pccadjtopcc.pdf
Tuesday, July 27, 2010 10:44 AM 401437 212-420206-08_entrrampterm-pccadjtocrc.pdf
Tuesday, July 27, 2010 10:45 AM 564939 212-420301-04_exitrampterm-pccadjtopcc.pdf
Tuesday, July 27, 2010 10:45 AM 557812 212-420306-06_exitrampterm-pccadjtocrc.pdf
Monday, July 26, 2010 2:16 PM 245022 212-420401-08_bridgeapproachpvmt.pdf
Monday, July 26, 2010 2:17 PM 115268 212-420501-04_pccpvmt&pccbsecseadjtorrgradexing.pdf
Monday, July 26, 2010 2:17 PM 94591 212-420601-05_24ftpccpvmt.pdf
Monday, July 26, 2010 2:17 PM 122704 212-420701-02_pavementfabric.pdf
Monday, July 26, 2010 2:18 PM 130591 212-421001-02_barreinfforcrcpvmt.pdf
Wednesday, August 11, 2010 4:09 PM 472642 212-421101-08_24ftcrcpvmt-wwideflangebeamtermjt.pdf
Wednesday, August 11, 2010 4:09 PM 463639 212-421106-08_36ftcrcpvmt-wwideflangebeamtermjt.pdf
Monday, July 26, 2010 2:19 PM 352917 212-421201-06_24ftcrcpvmt-wlugsys.pdf
Monday, July 26, 2010 2:20 PM 377233 212-421206-06_36ftcrcpvmt-wlugsys.pdf
Tuesday, July 27, 2010 10:46 AM 300354 212-424001-05_curbrampsforsidewalk.pdf
Monday, July 26, 2010 2:22 PM 195048 212-442001-04_classapatches.pdf
Friday, July 30, 2010 9:06 AM 350286 212-442101-07_classbpatches.pdf
Monday, July 26, 2010 2:24 PM 168689 212-442201-03_classc&dpatches.pdf
Monday, July 26, 2010 2:24 PM 136086 212-482001-02_hmashldadjtoflexpvmt.pdf
Monday, July 26, 2010 2:24 PM 123415 212-482006-03_hmashldadjtorigidpvmt.pdf
Monday, July 26, 2010 2:25 PM 272752 212-482011-03_hmashldstrips(shlds)wresurforwiden&resurfproj.pdf
Monday, July 26, 2010 2:26 PM 184808 212-483001-04_pccshld.pdf
Wednesday, August 11, 2010 4:09 PM 313205 212-509001-02_tubularthriebeamretrofitrailforbridge.pdf
Monday, July 26, 2010 2:28 PM 157983 212-515001-03_nameplateforbridges.pdf
Monday, July 26, 2010 2:29 PM 136572 212-542001-02_reinfconcendsect-wparallelwngwalls12-48indiartangle.pdf
Monday, July 26, 2010 2:29 PM 175616 212-542101-02_reinfconcendsectforpipeculv15-36indiartangle.pdf
Monday, July 26, 2010 2:30 PM 300101 212-542106-02_reinfconcendsectforpipeculv42-60indiartangle.pdf
Monday, July 26, 2010 2:31 PM 323017 212-542111-02_reinfconcendsectforpipeculv66-84indiartangle.pdf
Monday, July 26, 2010 2:32 PM 393280 212-542116-02_reinfconcendsectformultpipeculv15-36indiartangle.pdf
Monday, July 26, 2010 2:32 PM 433773 212-542121-02_reinfconcendsectformultpipeculv42-60indiartangle.pdf
Monday, July 26, 2010 2:33 PM 1528479 212-542201-02_reinfconcendsectforpipeculv15-36indiaskewed.pdf
Wednesday, August 11, 2010 4:09 PM 975320 212-542206-02_reinfconcendsectforpipeculv42-60indiaskewed.pdf
Wednesday, August 11, 2010 4:09 PM 165283 212-542301-03_precastreinfconcflaredendsect.pdf
Monday, July 26, 2010 2:34 PM 139037 212-542306-02_precastreinfconcellipticalflaredendsect.pdf
Wednesday, August 11, 2010 4:09 PM 293160 212-542311-02_gratingforconcflaredendsection24-54inpipe.pdf
Monday, July 26, 2010 2:34 PM 188654 212-542401-01_metalendsectforpipeculv.pdf
Monday, July 26, 2010 2:35 PM 187764 212-542406-01_metalendsectforpipearch.pdf
Monday, July 26, 2010 2:35 PM 191759 212-542501-02_inletboxtypea24in.pdf
Monday, July 26, 2010 2:36 PM 216913 212-542506-02_inletboxtypeb24in.pdf
Monday, July 26, 2010 2:37 PM 214644 212-542511-02_inletboxtypec24in.pdf
Wednesday, August 11, 2010 4:09 PM 229275 212-542516-03_inletboxtyped24in.pdf
Monday, July 26, 2010 2:37 PM 230317 212-542521-02_inletboxtypee24in.pdf
Wednesday, August 11, 2010 4:09 PM 249296 212-542526-03_inletboxtypef24in.pdf
Wednesday, August 11, 2010 4:09 PM 228850 212-542531-04_inletboxtypeg24in.pdf
Monday, July 26, 2010 2:38 PM 250130 212-542536-03_inletboxtypea36in.pdf
Monday, July 26, 2010 2:39 PM 245897 212-542541-02_inletboxtypea48in.pdf
Monday, July 26, 2010 2:39 PM 166165 212-542546-01_flushinletboxformedian.pdf
Wednesday, August 11, 2010 4:09 PM 98693 212-542601-03_rcpipeelbow.pdf
Wednesday, August 11, 2010 4:09 PM 188334 212-542606-02_rcpipetee.pdf
Wednesday, August 11, 2010 4:09 PM 319352 212-601001-04_subsurfdrains.pdf
Monday, July 26, 2010 2:42 PM 75738 212-601101-01_conchdwforpipedrain.pdf
Wednesday, August 11, 2010 4:09 PM 114726 212-602001-02_catchbasin-typea.pdf
Wednesday, August 11, 2010 4:09 PM 125620 212-602006-03_catchbasin-typeb.pdf
Wednesday, August 11, 2010 4:09 PM 83640 212-602011-02_catchbasin-typec.pdf
Wednesday, August 11, 2010 4:09 PM 148257 212-602016-02_catchbasin-typed.pdf
Monday, July 26, 2010 2:43 PM 249098 212-602101-02_drainstruc-type1&2&3.pdf
Monday, July 26, 2010 2:44 PM 248380 212-602106-01_drainstruc-type4&5&6.pdf
Wednesday, August 11, 2010 4:09 PM 84746 212-602301-03_inlet-typea.pdf
Wednesday, August 11, 2010 4:09 PM 101050 212-602306-03_inlet-typeb.pdf
Wednesday, August 11, 2010 4:09 PM 113768 212-602401-03_manhole-typea.pdf
Wednesday, August 11, 2010 4:09 PM 223074 212-602406-04_manhole-typea6ftdia.pdf
Wednesday, August 11, 2010 4:09 PM 237912 212-602411-02_manhole-typea7ftdia.pdf
Wednesday, August 11, 2010 4:09 PM 240026 212-602416-02_manhole-typea8ftdia.pdf
Wednesday, August 11, 2010 4:09 PM 236676 212-602421-02_manhole-typea9ftdia.pdf
Wednesday, August 11, 2010 4:09 PM 111922 212-602501-02_valvevault-typea.pdf
Monday, July 26, 2010 2:44 PM 132832 212-602601-02_precastreinfconcflatslabtop.pdf
Monday, July 26, 2010 2:45 PM 88151 212-602701-02_manholesteps.pdf
Monday, July 26, 2010 2:45 PM 86218 212-604001-03_frame&lids-type1.pdf
Monday, July 26, 2010 2:46 PM 109886 212-604006-04_Frame&GrateType3.pdf
Monday, July 26, 2010 2:46 PM 116314 212-604011-04_frame&gratetype3v.pdf
Monday, July 26, 2010 2:46 PM 69116 212-604016-02_frame&gratetype4.pdf
Monday, July 26, 2010 2:47 PM 115916 212-604021-02_baseframe&lidstype5.pdf
Monday, July 26, 2010 2:47 PM 86153 212-604026-02_Frame&GrateType6.pdf
Monday, July 26, 2010 2:48 PM 46516 212-604031-02_GrateType7.pdf
Tuesday, August 10, 2010 10:51 AM 47928 212-604036-02_GrateType8.pdf
Monday, July 26, 2010 2:48 PM 76264 212-604041-02_frame&gratetype9.pdf
Monday, July 26, 2010 2:49 PM 76207 212-604046-02_frame&gratetype10.pdf
Monday, July 26, 2010 2:49 PM 108213 212-604051-03_frame&gratetype11.pdf
Monday, July 26, 2010 2:50 PM 120928 212-604056-03_frame&gratetype11v.pdf
Monday, July 26, 2010 2:50 PM 81746 212-604061-02_frame&gratetype12.pdf
Monday, July 26, 2010 2:50 PM 115291 212-604066-02_frame&lidtype15.pdf
Monday, July 26, 2010 2:51 PM 84480 212-604071-04_frame&gratetype20.pdf
Monday, July 26, 2010 2:51 PM 106310 212-604076-04_frame&gratetype21.pdf
Monday, July 26, 2010 2:52 PM 96926 212-604081-04_frame&gratetype22.pdf
Monday, July 26, 2010 2:52 PM 109913 212-604086-02_frame&gratetype23.pdf
Monday, July 26, 2010 2:53 PM 102123 212-604091-02_frame&gratetype24.pdf
Monday, July 26, 2010 2:53 PM 118487 212-604101-01_medianinletfor24inrcpipe.pdf
Monday, July 26, 2010 2:53 PM 124904 212-604106-01_medianinletfor36inrcpipe.pdf
Monday, July 26, 2010 3:00 PM 363403 212-606001-04_conccurbtypeb&comboconcc&g.pdf
Monday, July 26, 2010 3:01 PM 327551 212-606006-02_outletsforconcc&g-typeb-6.24.pdf
Monday, July 26, 2010 3:03 PM 277507 212-606101-04_typeagut-inloutl&entr.pdf
Monday, July 26, 2010 3:03 PM 135704 212-606106-04_outltype1fortypeagut.pdf
Monday, July 26, 2010 3:04 PM 151430 212-606111-03_outltype2fortypeagut.pdf
Monday, July 26, 2010 3:14 PM 237479 212-606201-02_typebgut-inloutl&entr.pdf
Monday, July 26, 2010 3:15 PM 129772 212-606206-03_outltype1fortypebgut.pdf
Monday, July 26, 2010 3:15 PM 152913 212-606211-03_outltype2fortypebgut.pdf
Monday, July 26, 2010 3:16 PM 330561 212-606301-04_PCCIslands&Medians.pdf
Monday, July 26, 2010 3:17 PM 127405 212-606306-03_corrugatedpccmedians.pdf
Monday, July 26, 2010 3:17 PM 186296 212-606401-01_pavedditch.pdf
Monday, July 26, 2010 3:18 PM 316242 212-609001-05_bridgeapproachshldpvmt&drain.pdf
Monday, July 26, 2010 3:19 PM 307840 212-609006-05_BridgeApproachPvmt(DrainDetail).pdf
Monday, July 26, 2010 3:42 PM 296920 212-610001-05_ShldInletWithCurb.pdf
Wednesday, August 11, 2010 4:09 PM 402049 212-630001-09_SteelPlateBeamGrdrail.pdf
Friday, August 13, 2010 9:40 AM 245558 212-630101-09_GuardrailMountedOnExCulv.pdf
Wednesday, August 11, 2010 4:09 PM 86051 212-630106-LongSpanGuardrailOverCulvert.pdf
Monday, July 26, 2010 3:43 PM 121813 212-630201-06_PCC-BitStb@SteelPlateBeamGrdRail.pdf
Monday, July 26, 2010 3:43 PM 153476 212-630301-05_ShldWidenForType1GrdrailTerms.pdf
Wednesday, August 11, 2010 4:09 PM 114130 212-631006-08_TrafBarTermType1B.pdf
Wednesday, August 11, 2010 4:09 PM 115934 212-631011-07_TrafBarTermType2.pdf
Monday, July 26, 2010 3:44 PM 148111 212-631026-05_TrafBarTermType5.pdf
Wednesday, August 11, 2010 4:09 PM 290804 212-631031-09_TrafBarTermType6.pdf
Wednesday, August 11, 2010 4:09 PM 345866 212-631032-06_TrafBarTermType6A.pdf
Wednesday, August 11, 2010 4:09 PM 235995 212-631033-04_TrafBarTermType6B.pdf
Monday, July 26, 2010 3:44 PM 150450 212-631036-05_trafbartermtype8.pdf
Wednesday, August 11, 2010 4:09 PM 146862 212-631041-03_trafbartermtype9.pdf
Monday, July 26, 2010 3:45 PM 135794 212-631046-04_trafbartermtype10.pdf
Wednesday, August 11, 2010 4:09 PM 146885 212-631051-03_trafbartermtype11.pdf
Monday, July 26, 2010 3:45 PM 130819 212-631056-02_trafbartermtype12.pdf
Monday, July 26, 2010 3:45 PM 208930 212-635001-01_delineators.pdf
Monday, July 26, 2010 3:46 PM 108566 212-635006-03_reflector&termmrkrplacemnt.pdf
Monday, July 26, 2010 3:47 PM 209362 212-635011-02_reflectormrkr&mountdetails.pdf
Monday, July 26, 2010 3:47 PM 413324 212-636001-02_cablerdgrd-singlestrand.pdf
Monday, July 26, 2010 3:48 PM 207440 212-637001-04_concbarrierdblface32in.pdf
Monday, July 26, 2010 3:49 PM 211505 212-637006-02_concbarrierdblface42in.pdf
Monday, July 26, 2010 3:49 PM 100455 212-638001-02_glarescreenblades.pdf
Monday, July 26, 2010 3:49 PM 72085 212-638101-02_concglarescreen.pdf
Monday, July 26, 2010 3:50 PM 238231 212-639001-02_sightscrn-precstprestressconcpanelwall.pdf
Monday, July 26, 2010 3:51 PM 284852 212-640001-01_sightscrn-chainlinkfence.pdf
Monday, July 26, 2010 3:51 PM 127539 212-641001-01_sightscrn-cedarstckadefencetypes.pdf
Monday, July 26, 2010 3:51 PM 116596 212-641006-01_sightscrn-woodplankfencetypep.pdf
Monday, July 26, 2010 3:52 PM 121671 212-642001-01_shldrumblestrips.pdf
Monday, July 26, 2010 3:52 PM 502933 212-664001-02_ChainLinkFence.pdf
Monday, July 26, 2010 3:53 PM 600385 212-665001-02_WovenWireFence.pdf
Monday, July 26, 2010 3:53 PM 90781 212-666001-01_ROWMrkrs.pdf
Monday, July 26, 2010 3:54 PM 57899 212-667001-01_DrainageMrkrs.pdf
Monday, July 26, 2010 3:54 PM 103323 212-667101-01_PermanentSurveyMrkrs.pdf
Monday, July 26, 2010 3:54 PM 57505 212-668001-01_MethOfResetting-USGS&NGS-Benchmarks.pdf
Monday, July 26, 2010 3:57 PM 61337 212-701001-02_OffRdOp-2L2W-15ftMinFromEOP-45MPH+.pdf
Monday, July 26, 2010 3:57 PM 99113 212-701006-03_OffRdOp-2L2W-15ftToEOP-45MPH+.pdf
Monday, July 26, 2010 3:57 PM 92689 212-701011-02_OffRdMovingOp-2L2W-DayOnly-45MPH+.pdf
Monday, July 26, 2010 3:58 PM 100837 212-701101-02_OffRdOp-MultiLn-LessThan15ftToEOP.pdf
Monday, July 26, 2010 3:58 PM 64937 212-701106-02_OffRdOp-MultiLn-MoreThan15ftAway.pdf
Wednesday, August 11, 2010 4:09 PM 107792 212-701201-04_LnClosure2L2W-DayOnly.pdf
Wednesday, August 11, 2010 4:09 PM 94929 212-701206-03_LnClosure2L2W-NightOnly45MPH+.pdf
Wednesday, August 11, 2010 4:09 PM 93488 212-701301-04_LnClosure2L2W-ShortTimeOp.pdf
Wednesday, August 11, 2010 4:09 PM 109810 212-701306-03_LnClosure2L2W-SlowMoveOpDayOnly45MPH+.pdf
Monday, July 26, 2010 3:58 PM 85999 212-701311-03_LnClosure2L2W-MovingOpDayOnly.pdf
Wednesday, August 11, 2010 4:09 PM 221760 212-701316-05_LnClosure2L2W-BridgeRepair45MPH+.pdf
Wednesday, August 11, 2010 4:09 PM 235355 212-701321-11 LnClosure2L2W-BridgeRepair+Barrier.pdf
Wednesday, August 11, 2010 4:09 PM 117477 212-701326-04_LnClosure2L2W-PvmtWidening45MPH+.pdf
Wednesday, August 11, 2010 4:09 PM 140800 212-701331-04_LnClosure2L2W+RunAround45MPH+.pdf
Wednesday, August 11, 2010 4:10 PM 142179 212-701336-06_LnClosure2L2W-WorkAreasInSeries45MPH+.pdf
Wednesday, August 11, 2010 4:10 PM 132260 212-701400-05_ApprchToLnClosure-FrwayExpway.pdf
Wednesday, August 11, 2010 4:10 PM 157688 212-701401-06_LnClosureFrwayExpway.pdf
Wednesday, August 11, 2010 4:10 PM 123536 212-701402-08_LnClosureFrwayExpway+Barrier.pdf
Wednesday, August 11, 2010 4:10 PM 140017 212-701406-06_LnClosureFrwayExpway-DayOpOnly.pdf
Wednesday, August 11, 2010 4:10 PM 274891 212-701411-07_LnClosureMultiLn-EntrOrExitRamp45MPH+.pdf
Monday, July 26, 2010 3:59 PM 134509 212-701416-06_LnClosureFrwayExpway+Crossover&Barrier.pdf
Wednesday, August 11, 2010 4:10 PM 150508 212-701421-03_LnClosureMultiLn-DayOpOnly45-55MPH.pdf
Wednesday, August 11, 2010 4:10 PM 167070 212-701422-03_LnClosureMultiLn-45-55MPH.pdf
Wednesday, August 11, 2010 4:10 PM 153930 212-701423-04_LnClosureMultiln+Barrier45-55MPH.pdf
Wednesday, August 11, 2010 4:10 PM 146619 212-701426-04_LnClosureMultiLn-IntermittantOrMovingOp45MPH+.pdf
Wednesday, August 11, 2010 4:10 PM 144810 212-701427_LnClosureMultiLn-IntermittantOrMovingOpLTorEQ40MPH.pdf
Wednesday, August 11, 2010 4:10 PM 182255 212-701431-06_LnClosureMultiLnUndivided+Crossover45-55MPH.pdf
Wednesday, August 11, 2010 4:10 PM 176530 212-701446-02_TwoLnClosure-FrwayExpway.pdf
Monday, July 26, 2010 3:59 PM 87578 212-701451-01_RampClosureFreewayExp.pdf
Wednesday, August 11, 2010 4:10 PM 67544 212-701456-01_PartialExitRampClosureFrewayExp.pdf
Wednesday, August 11, 2010 4:10 PM 114739 212-701501-06_UrbanLnClosure2L2W-Undivided.pdf
Wednesday, August 11, 2010 4:10 PM 194900 212-701502-04_UrbanLnClosure2L2W+BidirectLeftTurnLn.pdf
Wednesday, August 11, 2010 4:10 PM 172645 212-701601-07_UrbanLnClosureMultiLn1W2W+NontrvsableMed.pdf
Wednesday, August 11, 2010 4:10 PM 334839 212-701602-05_UrbanLnClosureMultiLn2W+BidirectLeftTurnLn.pdf
Wednesday, August 11, 2010 4:10 PM 193410 212-701606-07_UrbanLnClosureMultiLn2W+MountableMed.pdf
Wednesday, August 11, 2010 4:10 PM 154634 212-701701-07_UrbanLnClosureMultiLnIntersection.pdf
Monday, July 26, 2010 3:59 PM 132391 212-701801-04_LnClosureMultiLn1W2W+CrosswalkOrSWClosure.pdf
Tuesday, July 27, 2010 10:46 AM 420331 212-701901-01_TrafCntrlDevices.pdf
Monday, July 26, 2010 4:01 PM 245296 212-704001-06_TempConcBarrier.pdf
Monday, July 26, 2010 4:01 PM 110411 212-720001-01_SignPanelMountDetails.pdf
Monday, July 26, 2010 4:01 PM 101197 212-720006-02_SignPanelErectDetails.pdf
Monday, July 26, 2010 4:02 PM 88561 212-720011-01_MetalPostsForSignsMrkrs&Delineators.pdf
Monday, July 26, 2010 4:02 PM 126320 212-720016-02_MastArmMountedStNameSigns.pdf
Wednesday, August 11, 2010 4:07 PM 244825 212-720021-02_SignPanels-ExtrudedAlumType.pdf
Wednesday, August 11, 2010 4:08 PM 82556 212-728001-01_TelescopingSteelSignSupport.pdf
Monday, July 26, 2010 4:03 PM 126478 212-729001-01_AppOfTypesA&BPosts.pdf
Wednesday, August 11, 2010 4:08 PM 77992 212-731001-01_BaseForTelescopingSteelSignSupport.pdf
Monday, July 26, 2010 4:04 PM 197919 212-780001-02_TypicalPvmtMrkings.pdf
Monday, July 26, 2010 4:05 PM 118977 212-781001-03_TypicalAppRaisedReflcPvmtMrkrs.pdf
Monday, July 26, 2010 4:05 PM 110885 212-805001-01_ElecSrvcInstallDetails.pdf
Monday, July 26, 2010 4:05 PM 94883 212-814001-02_Handholes.pdf
Monday, July 26, 2010 4:06 PM 130175 212-814006-02_DoubleHandholes.pdf
Wednesday, August 11, 2010 4:10 PM 254450 212-825001-01_LightingControllerPoleMount240V.pdf
Wednesday, August 11, 2010 4:10 PM 155983 212-825006-01_LightingControllerPoleMount480V.pdf
Wednesday, August 11, 2010 4:10 PM 156944 212-825011-01_LightingControllerPedestalMount240V.pdf
Wednesday, August 11, 2010 4:10 PM 169317 212-825016-01_LightingControllerPedestalMount480V.pdf
Wednesday, August 11, 2010 4:10 PM 162433 212-825021-01_LightingControllerBaseMount240V.pdf
Wednesday, August 11, 2010 4:10 PM 175586 212-825026-01_LightingControllerBaseMount480V.pdf
Wednesday, August 11, 2010 4:10 PM 228784 212-835001_LightTower.pdf
Monday, July 26, 2010 4:06 PM 227137 212-836001_LightPoleFoundation.pdf
Monday, July 26, 2010 4:07 PM 280856 212-837001_LightTowerFoundation.pdf
Monday, July 26, 2010 4:07 PM 166318 212-857001-01_StdPhaseDesignationDiagrams&PhaseSeq.pdf
Monday, July 26, 2010 4:08 PM 102581 212-857006-01_SupervisedRRInterconnectCircuit-.pdf
Monday, July 26, 2010 4:08 PM 48551 212-862001-01_UPS.pdf
Monday, July 26, 2010 4:08 PM 139367 212-873001-02_TrafSignalGround&Bond.pdf
Monday, July 26, 2010 4:09 PM 65067 212-876001-01_PedestrianPushButtonPost.pdf
Monday, July 26, 2010 4:09 PM 100851 212-877001-04_SteelMastArmAssembly&Pole16'thre55'.pdf
Monday, July 26, 2010 4:09 PM 103138 212-877002-01_SteelMastArmAssembly&Pole56'thru75'.pdf
Monday, July 26, 2010 4:10 PM 122876 212-877006-03_SteelMastArmAssembly&Pole+DualMastArms.pdf
Monday, July 26, 2010 4:10 PM 150016 212-877011-04_SteelComboMastArmAssembly&Pole16'thru55'.pdf
Monday, July 26, 2010 4:10 PM 152365 212-877012-01_SteelComboMastArmAssembly&Pole56'thru75'.pdf
Monday, July 26, 2010 4:13 PM 237948 212-878001-08_ConcreteFoundationDetails.pdf
Monday, July 26, 2010 4:13 PM 142407 212-880001-01_SpanWireMountSignals&FlashBeaconInstall.pdf
Monday, July 26, 2010 4:13 PM 111004 212-880006-01_TrfSignalMountDetails-Post&BracketMount.pdf
Friday, July 30, 2010 9:07 AM 161879 212-886001-01_DetectorLoopInstallations.pdf
Monday, July 26, 2010 4:14 PM 69950 212-886006-01_TypicalLayoutsForDetectionLoops.pdf
Monday, July 26, 2010 4:15 PM 342304 212-BLR10-6_PCCPvmtSpecial-NonReinf.pdf
Monday, July 26, 2010 4:15 PM 154580 212-BLR14-10_PCCPvmt-NonReinf.pdf
Monday, July 26, 2010 4:15 PM 154770 212-BLR17-4_TrafCntrlDevices-DayLaborConstr.pdf
Monday, July 26, 2010 4:16 PM 157824 212-BLR18-5_TrafCntrlDevices-DayLaborMaint.pdf
Monday, July 26, 2010 4:16 PM 282962 212-BLR20-6_TrafBarrierTermType5R.pdf
Monday, July 26, 2010 4:16 PM 137850 212-BLR21-8_TypAppTrafCntrlDevices-ConstrOnRuralLocalHwys.pdf
Monday, July 26, 2010 4:17 PM 130289 212-BLR22-6_TypAppTrafCntrlDevices-ConstrOnRuralLocalHwys(2L2W-RdClsdToThruTraf).pdf
Monday, July 26, 2010 4:18 PM 262784 212-BLR23-3_TrafBarrierTermType1.pdf
Monday, July 26, 2010 4:18 PM 106678 212-BLR24-2_MailboxTurn-LocalRds.pdf
Friday, July 30, 2010 9:07 AM 48391 212-BLR25-1_Type1ABarrForNonNHSRts.pdf
Monday, July 26, 2010 4:19 PM 455809 212-BLR26-2_SteelPlateBeemGR27.5inchHt.pdf
Monday, July 26, 2010 4:19 PM 156346 212-BLR27-1_TrafBarTermType5A.pdf
Friday, July 08, 2011 10:32 AM <dir> _vti_cnf